This is the latest recevied weather packets stored in our database for station/object EA6AMR-10. If no packets are shown the sender has not sent any weather packets the latest 10 day(s).
| Time | Temp. | Humidity | Pressure | Rain* | Wind** | Luminosity | Snow |
|---|---|---|---|---|---|---|---|
| 1777446870 | 22.22° C | 48% | 1010.9 hPa | - | - | - | - |
| 1777446001 | 21.11° C | 48% | 1010.7 hPa | - | - | - | - |
| 1777445969 | 21.11° C | 48% | 1010.7 hPa | - | - | - | - |
| 1777445069 | 20.56° C | 49% | 1010.7 hPa | - | - | - | - |
| 1777444169 | 20° C | 47% | 1010.7 hPa | - | - | - | - |
| 1777443269 | 19.44° C | 47% | 1010.5 hPa | - | - | - | - |
| 1777442369 | 19.44° C | 42% | 1010.4 hPa | - | - | - | - |
| 1777441468 | 18.33° C | 42% | 1010.2 hPa | - | - | - | - |
| 1777440568 | 17.22° C | 42% | 1010.1 hPa | - | - | - | - |
| 1777439668 | 17.22° C | 42% | 1010 hPa | - | - | - | - |
| 1777438768 | 16.67° C | 43% | 1009.9 hPa | - | - | - | - |
| 1777437868 | 17.22° C | 43% | 1009.8 hPa | - | - | - | - |
| 1777436967 | 17.78° C | 42% | 1009.5 hPa | - | - | - | - |
| 1777436067 | 17.22° C | 42% | 1009.5 hPa | - | - | - | - |
| 1777435167 | 17.22° C | 43% | 1009.4 hPa | - | - | - | - |
| 1777434267 | 17.22° C | 43% | 1009.5 hPa | - | - | - | - |
| 1777433367 | 17.78° C | 43% | 1009.7 hPa | - | - | - | - |
| 1777432466 | 17.78° C | 43% | 1009.6 hPa | - | - | - | - |
| 1777431566 | 17.78° C | 43% | 1009.8 hPa | - | - | - | - |
| 1777430665 | 17.22° C | 43% | 1009.6 hPa | - | - | - | - |
| 1777429770 | 17.78° C | 43% | 1009.7 hPa | - | - | - | - |
| 1777428869 | 17.78° C | 44% | 1009.8 hPa | - | - | - | - |
| 1777427969 | 18.33° C | 43% | 1009.9 hPa | - | - | - | - |
| 1777427069 | 19.44° C | 43% | 1009.8 hPa | - | - | - | - |
| 1777426169 | 18.89° C | 43% | 1009.8 hPa | - | - | - | - |
* Rain since midnight (hover to see other rain measurements)
** Current wind speed in m/s (hover to see current wind gust speed)